Hourly Data Report for September 24, 2017

All times are specified in Local Standard Time (LST). Add 1 hour to adjust for Daylight Saving Time where and when it is observed.

SATURNA ISLAND CS
BRITISH COLUMBIA

48°47'02.067" N
123°02'41.082" W
24.40 m
1017101
71473
WEZ

Download Data

Hourly Data (September 2017)
Hourly Data Report for September 24, 2017
Temp Definition
°C
Dew Point Temp Definition
°C
Rel Hum Definition
%
Wind Dir Definition
10's deg

Wind Spd Definition
km/h
Visibility Definition
km
Stn Press Definition
kPa
Hmdx Definition


Wind Chill Definition


Weather Definition


TIME
00:00 12.2 8.7 80 0 1   101.68     LegendNANA
01:00 12.3 8.4 77 29 8   101.71     LegendNANA
02:00 11.8 8.1 78 20 4   101.73     LegendNANA
03:00 11.5 8.7 83 30 3   101.75     LegendNANA
04:00 11.5 9.0 85 20 10   101.73     LegendNANA
05:00 11.5 9.2 86 21 8   101.72     LegendNANA
06:00 11.2 8.9 86 23 15   101.76     LegendNANA
07:00 12.4 9.2 81 22 7   101.79     LegendNANA
08:00 12.2 9.8 85 20 9   101.77     LegendNANA
09:00 12.3 9.4 83 16 2   101.80     LegendNANA
10:00 13.5 10.6 83 12 4   101.79     LegendNANA
11:00 14.3 10.3 77 19 5   101.75     LegendNANA
12:00 14.3 9.8 74 20 9   101.72     LegendNANA
13:00 16.3 10.8 70 19 5   101.70     LegendNANA
14:00 16.0 11.1 73 20 7   101.67     LegendNANA
15:00 15.7 11.0 74 20 9   101.62     LegendNANA
16:00 15.6 10.6 72 18 4   101.58     LegendNANA
17:00 15.2 9.1 67 10 4   101.55     LegendNANA
18:00 15.1 9.3 68 22 9   101.50     LegendNANA
19:00 12.8 9.7 81 23 17   101.51     LegendNANA
20:00 11.7 9.7 88 22 23   101.53     LegendNANA
21:00 11.7 9.9 89 23 15   101.50     LegendNANA
22:00 12.0 10.1 88 22 15   101.50     LegendNANA
23:00 12.2 10.1 87 23 16   101.52     LegendNANA

Notes on Data Quality.

Legend

  • E = Estimated
  • M = Missing
  • NA = Not Available
  • ‡ = Partner data that is not subject to review by the National Climate Archives
Date modified: